Hourly Data Report for October 10, 2014

All times are specified in Local Standard Time (LST). Add 1 hour to adjust for Daylight Saving Time where and when it is observed.

BATHURST A
NEW BRUNSWICK

47°37'47.000" N
65°44'20.000" W
58.80 m
8100505
71574
ZBF

Download Data

Hourly Data (October 2014)
Hourly Data Report for October 10, 2014
Temp Definition
°C
Dew Point Temp Definition
°C
Rel Hum Definition
%
Wind Dir Definition
10's deg

Wind Spd Definition
km/h
Visibility Definition
km
Stn Press Definition
kPa
Hmdx Definition


Wind Chill Definition


Weather Definition


TIME
00:00 Legend Double Dagger 4.3 2.2 86 22 12 24.1 99.87     LegendNANA
01:00 Legend Double Dagger 3.4 1.8 89 22 9 24.1 99.83     LegendNANA
02:00 Legend Double Dagger 4.1 1.5 83 24 9 24.1 99.81     Clear
03:00 Legend Double Dagger 3.5 1.1 84 22 10 24.1 99.78     LegendNANA
04:00 Legend Double Dagger 3.9 1.1 82 22 11 24.1 99.76     LegendNANA
05:00 Legend Double Dagger 5.5 1.1 73 22 14 24.1 99.76     Mainly Clear
06:00 Legend Double Dagger 5.9 1.1 71 23 16 24.1 99.80     LegendNANA
07:00 Legend Double Dagger 5.8 1.0 71 23 14 24.1 99.84     LegendNANA
08:00 Legend Double Dagger 7.1 1.6 68 23 16 24.1 99.89     Mainly Clear
09:00 Legend Double Dagger 8.6 2.0 63 26 25 24.1 99.96     LegendNANA
10:00 Legend Double Dagger 9.7 2.3 60 25 32 24.1 100.02     LegendNANA
11:00 Legend Double Dagger 11.3 2.6 55 27 26 24.1 100.08     Mostly Cloudy
12:00 Legend Double Dagger 12.3 3.6 55 26 18 24.1 100.10     LegendNANA
13:00 Legend Double Dagger 13.2 3.1 50 26 36 24.1 100.11     LegendNANA
14:00 Legend Double Dagger 13.2 3.1 50 28 23 24.1 100.15     Mostly Cloudy
15:00 Legend Double Dagger 12.8 3.8 54 25 29 24.1 100.21     LegendNANA
16:00 Legend Double Dagger 12.4 3.9 56 27 24 24.1 100.25     LegendNANA
17:00 Legend Double Dagger 11.5 4.1 60 23 19 24.1 100.35     Mostly Cloudy
18:00 Legend Double Dagger 10.8 4.1 63 22 11 24.1 100.42     LegendNANA
19:00 Legend Double Dagger 10.3 4.3 66 27 10 24.1 100.51     LegendNANA
20:00 Legend Double Dagger 10.1 4.1 66 27 14 24.1 100.56     Mostly Cloudy
21:00 Legend Double Dagger 9.0 4.1 71 26 8 24.1 100.60     LegendNANA
22:00 Legend Double Dagger 9.9 4.1 67 27 18 24.1 100.64     LegendNANA
23:00 Legend Double Dagger 9.9 3.9 66 28 19 24.1 100.67     Cloudy

Notes on Data Quality.

Legend

  • E = Estimated
  • M = Missing
  • NA = Not Available
  • ‡ = Partner data that is not subject to review by the National Climate Archives
Date modified: